Back to catalog

IRIDIUM 33 DEB

AlivePO
NORAD 33887·DEBRIS·🇺🇸 United States

Launched Sep 14, 1997 from Baikonur Cosmodrome

Loading…

Next Passes (next 24 hours)

TLE

FreshSource: Space-Track

Epoch: Sep 14, 2026, 10:47 UTC

1 33887U 97051BG  26257.44971255  .00000285  00000-0  88709-4 0  9991
2 33887  86.2997 244.5499 0008273  66.7718  86.1945 14.37442384921256

Track IRIDIUM 33 DEB in real time with AllMySat

Download on the App Store